Weather History for Lanai City, HI

Change the Weather History Date:

Wednesday, October 3, 2012

  Actual Average Record
Temperature  
Mean Temperature 73 °F -  
Max Temperature 83 °F 82 °F 84 °F (1950)
Min Temperature 63 °F 67 °F 62 °F (1952)
Cooling Degree Days 8    
Growing Degree Days 23 (Base 50)    
Moisture  
Dew Point 66 °F    
Average Humidity 77    
Maximum Humidity 97    
Minimum Humidity 58    
Precipitation  
Precipitation 0.00 in - - ()
Sea Level Pressure  
Sea Level Pressure 30.00 in    
Wind  
Wind Speed 5 mph (NNE)    
Max Wind Speed 13 mph    
Max Gust Speed -    
Visibility 10 miles    
Events      
Averages and records for this station are not official NWS values.
T = Trace of Precipitation, MM = Missing Value Source: NWS Daily Summary

Daily Weather History Graph

Daily Weather History Graph

Search for Another Location

Airport:

Trip Planner

Search our weather history database for the weather conditions in past years. The results will help you decide how hot, cold, wet, or windy it might be!

Date:

Astronomy

Oct. 03, 2012 Rise Set
Actual Time 6:19 AM HST 6:13 PM HST
Civil Twilight 5:57 AM HST 6:35 PM HST
Nautical Twilight 5:31 AM HST 7:01 PM HST
Astronomical Twilight 5:06 AM HST 7:26 PM HST
Moon 8:45 PM HST (10/3) 9:22 AM HST (10/3)
Length of Visible Light 12h 37m
Length of Day
11h 53m
Waning Gibbous, 87% of the Moon is Illuminated
Oct 3
Waning Gibbous
Oct 7
Last Quarter
Oct 15
New
Oct 21
First Quarter
Oct 29
Full

Hourly Weather History & Observations

Time (HST) Temp. Heat Index Dew Point Humidity Pressure Visibility Wind Dir Wind Speed Gust Speed Precip Events Conditions
12:56 AM 68.9 °F - 65.8 °F 90% 29.97 in 10.0 mi NNE 9.2 mph - N/A   Clear
1:56 AM 68.9 °F - 65.8 °F 90% 29.97 in 10.0 mi Calm Calm - N/A   Clear
2:56 AM 65.8 °F - 63.9 °F 93% 29.98 in 10.0 mi Calm Calm - N/A   Partly Cloudy
3:56 AM 65.8 °F - 63.9 °F 93% 29.96 in 10.0 mi Calm Calm - N/A   Partly Cloudy
4:56 AM 65.8 °F - 63.9 °F 93% 29.98 in 10.0 mi Calm Calm - N/A   Clear
5:56 AM 63.9 °F - 63.0 °F 97% 29.99 in 10.0 mi Calm Calm - N/A   Clear
6:56 AM 68.0 °F - 65.8 °F 93% 30.00 in 10.0 mi Calm Calm - N/A   Clear
7:56 AM 73.9 °F - 66.9 °F 79% 30.01 in 10.0 mi NNE 8.1 mph - N/A   Clear
8:56 AM 77.9 °F - 64.9 °F 64% 30.02 in 10.0 mi Calm Calm - N/A   Partly Cloudy
9:56 AM 79.9 °F - 65.8 °F 62% 30.02 in 10.0 mi WNW 4.6 mph - N/A   Clear
10:56 AM 82.4 °F 84.6 °F 66.2 °F 58% 30.07 in 10.0 mi West 9.2 mph - N/A   Clear
11:56 AM 81.9 °F 83.9 °F 65.8 °F 58% 29.99 in 10.0 mi WNW 8.1 mph - N/A   Scattered Clouds
12:56 PM 81.0 °F 83.3 °F 66.9 °F 62% 29.97 in 10.0 mi WSW 9.2 mph - N/A   Scattered Clouds
1:56 PM 82.4 °F 84.6 °F 66.2 °F 58% 30.02 in 10.0 mi Variable 4.6 mph - N/A   Scattered Clouds
2:56 PM 83.8 °F 87.0 °F 68.0 °F 59% 29.95 in 10.0 mi Variable 6.9 mph - N/A   Scattered Clouds
3:23 PM 82.4 °F 84.6 °F 66.2 °F 58% 30.01 in 10.0 mi WNW 9.2 mph - N/A   Mostly Cloudy
3:56 PM 77.0 °F - 66.9 °F 71% 29.96 in 10.0 mi SSE 9.2 mph - N/A   Mostly Cloudy
4:16 PM 75.2 °F - 68.0 °F 78% 30.02 in 10.0 mi Variable 3.5 mph - N/A   Overcast
4:56 PM 75.2 °F - 66.2 °F 73% 30.03 in 10.0 mi NE 11.5 mph - N/A   Scattered Clouds
5:56 PM 73.9 °F - 65.8 °F 76% 29.99 in 10.0 mi NE 10.4 mph - N/A   Partly Cloudy
6:56 PM 70.9 °F - 65.8 °F 84% 30.01 in 10.0 mi NE 8.1 mph - N/A   Clear
7:56 PM 70.9 °F - 65.8 °F 84% 30.02 in 10.0 mi ENE 12.7 mph - N/A   Clear
8:56 PM 70.0 °F - 64.9 °F 84% 30.03 in 10.0 mi ENE 10.4 mph - N/A   Clear
9:56 PM 70.0 °F - 63.9 °F 81% 30.03 in - ENE 10.4 mph - N/A   Clear
10:56 PM 69.8 °F - 64.4 °F 83% 30.09 in - Calm Calm - N/A   Clear
11:56 PM 68.9 °F - 64.9 °F 87% 30.01 in - Calm Calm - N/A   Mostly Cloudy